GW5037 Weather Reports


time (UTC)temp
F
wind
direction
speed
knots
gust
knots
rain 1hr
in
rain 24hr
in
rain mn
in
humidity
%
barometer
mb
20260508185247 65 62 1.7 1.7 0.00 0.00 0.00 53 1007.9
20260508184744 66 52 0.0 0.9 0.00 0.00 0.00 53 1008.3
20260508184241 67 8 2.6 4.3 0.00 0.00 0.00 50 1007.9
20260508183738 68 101 1.7 1.7 0.00 0.00 0.00 50 1007.9
20260508183234 68 59 0.9 0.9 0.00 0.00 0.00 50 1007.9
20260508182730 68 17 3.5 5.2 0.00 0.00 0.00 49 1008.3
20260508182227 69 64 2.6 2.6 0.00 0.00 0.00 48 1008.3
20260508181723 68 200 3.5 4.3 0.00 0.00 0.00 49 1008.3
20260508181221 68 93 0.0 0.9 0.00 0.00 0.00 52 1008.6
20260508180717 68 349 3.5 5.2 0.00 0.00 0.00 52 1008.3
20260508180214 67 65 0.0 0.9 0.00 0.00 0.00 53 1008.6
20260508175710 67 65 0.9 0.9 0.00 0.00 0.00 53 1008.9
20260508175207 67 74 0.9 0.9 0.00 0.00 0.00 51 1008.9
20260508174705 66 70 1.7 1.7 0.00 0.00 0.00 53 1009.3
20260508174201 67 35 1.7 2.6 0.00 0.00 0.00 53 1008.9
20260508173658 68 64 0.0 0.9 0.00 0.00 0.00 54 1009.3
20260508173154 66 72 0.0 1.7 0.00 0.00 0.00 55 1009.3
20260508172652 66 68 0.0 0.0 0.00 0.00 0.00 56 1009.3
20260508172148 64 80 0.9 1.7 0.00 0.00 0.00 55 1009.6
20260508171645 64 88 0.0 0.9 0.00 0.00 0.00 56 1009.6
20260508171141 63 86 0.0 0.0 0.00 0.00 0.00 58 1010.0
20260508170638 62 83 0.0 0.0 0.00 0.00 0.00 58 1010.0
20260508170136 62 73 0.9 0.9 0.00 0.00 0.00 58 1010.0
20260508165633 62 88 0.0 0.9 0.00 0.00 0.00 58 1010.4
20260508165130 63 83 0.9 0.9 0.00 0.00 0.00 58 1010.0
20260508164626 63 56 0.0 0.9 0.00 0.00 0.00 55 1010.0
20260508164123 64 57 0.9 0.9 0.00 0.00 0.00 56 1010.0
20260508163615 64 56 0.0 0.0 0.00 0.00 0.00 56 1010.4
20260508163112 63 34 2.6 4.3 0.00 0.00 0.00 56 1010.0
20260508162608 62 59 0.9 1.7 0.00 0.00 0.00 58 1010.4
20260508162105 63 43 0.9 0.9 0.00 0.00 0.00 55 1010.4
20260508161602 61 66 0.0 0.0 0.00 0.00 0.00 58 1010.4
20260508161059 61 4 0.9 5.2 0.00 0.00 0.00 57 1010.7
20260508160558 61 231 3.5 5.2 0.00 0.00 0.00 56 1010.7
20260508160054 61 71 0.0 0.9 0.00 0.00 0.00 56 1010.7
20260508155552 61 27 1.7 1.7 0.00 0.00 0.00 57 1010.7
20260508155048 61 101 1.7 2.6 0.00 0.00 0.00 56 1010.7
20260508154545 60 65 2.6 2.6 0.00 0.00 0.00 57 1010.7
20260508154042 59 49 0.9 1.7 0.00 0.00 0.00 59 1010.7
20260508153539 58 65 0.9 0.9 0.00 0.00 0.00 59 1010.7
20260508153035 58 65 2.6 4.3 0.00 0.00 0.00 59 1010.7
20260508152533 57 82 0.0 0.9 0.00 0.00 0.00 61 1010.7
20260508152029 57 69 0.9 1.7 0.00 0.00 0.00 61 1010.4
20260508151526 57 58 1.7 1.7 0.00 0.00 0.00 62 1011.1
20260508151022 56 145 0.9 0.9 0.00 0.00 0.00 63 1010.7
20260508150520 56 69 0.0 0.0 0.00 0.00 0.00 66 1011.1
20260508150015 56 62 0.9 1.7 0.00 0.00 0.00 65 1011.1
20260508145512 55 51 0.9 1.7 0.00 0.00 0.00 65 1011.1
20260508145008 55 76 0.0 0.0 0.00 0.00 0.00 65 1011.1
20260508144506 54 55 2.6 2.6 0.00 0.00 0.00 66 1011.1
20260508144003 54 69 2.6 4.3 0.00 0.00 0.00 66 1011.1
20260508143501 53 31 0.9 1.7 0.00 0.00 0.00 67 1011.1
20260508142957 53 77 2.6 2.6 0.00 0.00 0.00 68 1011.1
20260508142455 53 63 0.0 0.0 0.00 0.00 0.00 69 1011.1
20260508141950 53 64 0.0 0.9 0.00 0.00 0.00 68 1011.1
20260508141447 53 52 1.7 2.6 0.00 0.00 0.00 68 1011.4
20260508140945 53 93 1.7 2.6 0.00 0.00 0.00 68 1011.1
20260508140441 53 63 0.0 0.9 0.00 0.00 0.00 68 1011.1
20260508135937 53 62 0.9 0.9 0.00 0.00 0.00 68 1011.1
20260508135434 53 50 1.7 1.7 0.00 0.00 0.00 67 1011.1
20260508134930 53 91 0.0 0.9 0.00 0.00 0.00 68 1011.1
20260508134426 53 80 0.9 1.7 0.00 0.00 0.00 68 1011.1
20260508133923 53 84 0.9 0.9 0.00 0.00 0.00 67 1011.1
20260508133421 53 64 0.9 1.7 0.00 0.00 0.00 68 1011.1
20260508132918 53 81 0.9 0.9 0.00 0.00 0.00 67 1011.1
20260508132416 53 55 2.6 2.6 0.00 0.00 0.00 67 1011.1
20260508131913 53 63 0.0 0.9 0.00 0.00 0.00 70 1011.1
20260508131408 52 69 0.0 0.9 0.00 0.00 0.00 70 1011.1
20260508130905 52 61 0.0 0.9 0.00 0.00 0.00 70 1011.1
20260508130402 52 68 0.0 0.0 0.00 0.00 0.00 70 1011.1
20260508125857 52 87 0.0 0.9 0.00 0.00 0.00 71 1011.1
20260508125354 51 86 0.0 0.9 0.00 0.00 0.00 71 1011.1
20260508124852 51 162 0.9 1.7 0.00 0.00 0.00 72 1011.1
20260508124349 51 62 0.0 0.9 0.00 0.00 0.00 73 1011.1
20260508123847 51 69 0.0 0.0 0.00 0.00 0.00 72 1011.1
20260508123346 50 60 0.0 0.9 0.00 0.00 0.00 72 1011.1
20260508122842 50 66 0.0 0.0 0.00 0.00 0.00 73 1010.7
20260508122338 50 63 0.9 0.9 0.00 0.00 0.00 73 1010.7
20260508121836 50 70 0.0 0.0 0.00 0.00 0.00 74 1010.7
20260508121334 50 39 0.9 2.6 0.00 0.00 0.00 74 1011.1
20260508120831 49 70 0.0 0.0 0.00 0.00 0.00 75 1010.7
20260508120329 49 64 0.0 0.0 0.00 0.00 0.00 75 1011.1
20260508115826 48 70 0.0 0.9 0.00 0.00 0.00 75 1011.1
20260508115324 48 62 0.0 0.9 0.00 0.00 0.00 76 1010.7
20260508114820 48 67 0.0 0.0 0.00 0.00 0.00 76 1011.1
20260508114318 48 63 2.6 2.6 0.00 0.00 0.00 75 1010.7
20260508113814 48 68 0.9 1.7 0.00 0.00 0.00 75 1010.7
20260508113313 47 61 0.9 1.7 0.00 0.00 0.00 75 1010.7
20260508112808 47 57 0.9 0.9 0.00 0.00 0.00 76 1010.4
20260508112307 47 59 0.0 0.0 0.00 0.00 0.00 77 1010.7
20260508111802 46 61 0.9 0.9 0.00 0.00 0.00 78 1010.4
20260508111259 46 66 0.0 0.0 0.00 0.00 0.00 79 1010.4
20260508110756 45 63 0.0 0.0 0.00 0.00 0.00 81 1010.4
20260508110254 44 77 0.0 0.0 0.00 0.00 0.00 81 1010.7
20260508105753 44 82 0.0 0.0 0.00 0.00 0.00 81 1010.7
20260508105250 44 60 0.0 0.0 0.00 0.00 0.00 82 1010.7
20260508104747 43 60 0.0 0.0 0.00 0.00 0.00 81 1010.4
20260508104244 44 60 0.0 0.0 0.00 0.00 0.00 81 1010.4
20260508103741 44 60 0.0 0.0 0.00 0.00 0.00 81 1010.4
20260508103238 44 60 0.0 0.0 0.00 0.00 0.00 80 1010.7
20260508102735 44 60 0.0 0.0 0.00 0.00 0.00 81 1010.4
20260508102233 43 59 0.0 0.0 0.00 0.00 0.00 81 1010.4
20260508101730 44 65 0.0 0.0 0.00 0.00 0.00 81 1010.4
20260508101228 44 53 0.9 0.9 0.00 0.00 0.00 81 1010.4
20260508100725 44 59 0.0 0.9 0.00 0.00 0.00 81 1010.0
20260508100223 44 60 0.0 0.0 0.00 0.00 0.00 80 1010.4
20260508095719 44 60 0.0 0.0 0.00 0.00 0.00 80 1010.4
20260508095217 44 59 0.0 0.0 0.00 0.00 0.00 79 1010.0
20260508094713 45 66 0.0 0.0 0.00 0.00 0.00 79 1010.4
20260508094210 45 60 0.0 0.9 0.00 0.00 0.00 78 1010.0
20260508093707 45 59 0.0 0.0 0.00 0.00 0.00 78 1010.0
20260508093205 45 54 0.9 0.9 0.00 0.00 0.00 78 1010.0
20260508092702 45 57 0.0 0.9 0.00 0.00 0.00 77 1010.0
20260508092200 45 61 0.0 0.0 0.00 0.00 0.00 78 1010.4
20260508091657 45 67 0.0 0.0 0.00 0.00 0.00 77 1010.0
20260508091154 45 60 0.0 0.9 0.00 0.00 0.00 78 1010.0
20260508090652 45 62 0.0 0.0 0.00 0.00 0.00 77 1010.4
20260508090149 45 61 0.0 0.0 0.00 0.00 0.00 78 1010.0
20260508085640 45 61 0.0 0.0 0.00 0.00 0.00 78 1010.4
20260508085138 45 65 0.0 0.0 0.00 0.00 0.00 77 1010.4
20260508084634 46 61 0.0 0.9 0.00 0.00 0.00 77 1010.4
20260508084131 46 76 0.0 0.0 0.00 0.00 0.00 77 1010.4
20260508083628 46 77 0.0 0.0 0.00 0.00 0.00 77 1010.7
20260508083126 46 41 0.0 0.0 0.00 0.00 0.00 77 1010.4
20260508082621 46 62 0.0 0.0 0.00 0.00 0.00 79 1010.4
20260508082119 45 74 0.0 0.0 0.00 0.00 0.00 79 1010.0
20260508081616 45 62 0.0 0.0 0.00 0.00 0.00 80 1010.7
20260508081112 45 63 0.0 0.0 0.00 0.00 0.00 80 1010.4
20260508080610 45 63 0.0 0.0 0.00 0.00 0.00 79 1010.4
20260508080108 46 61 0.0 0.0 0.00 0.00 0.00 80 1010.4
20260508075603 45 65 0.0 0.0 0.00 0.00 0.00 81 1010.4
20260508075101 45 73 0.0 0.0 0.00 0.00 0.00 82 1010.4
20260508074559 46 63 0.0 0.0 0.00 0.00 0.00 83 1010.4
20260508074055 45 63 0.0 0.0 0.00 0.00 0.00 84 1010.7
20260508073553 45 63 0.0 0.0 0.00 0.00 0.00 85 1010.4
20260508073050 46 63 0.0 0.0 0.00 0.00 0.00 85 1010.4
20260508072545 46 64 0.0 0.0 0.00 0.00 0.00 85 1010.7
20260508072043 45 64 0.0 0.0 0.00 0.00 0.00 85 1010.4
20260508071541 45 64 0.0 0.0 0.00 0.00 0.00 85 1010.7
20260508071039 46 64 0.0 0.0 0.00 0.00 0.00 84 1010.7
20260508070536 46 64 0.0 0.0 0.00 0.00 0.00 84 1010.7
20260508070034 46 64 0.0 0.0 0.00 0.00 0.00 84 1010.7
20260508065531 46 64 0.0 0.0 0.00 0.00 0.00 84 1010.7
20260508065029 46 65 0.0 0.0 0.00 0.00 0.00 85 1011.1
20260508064527 47 65 0.0 0.0 0.00 0.00 0.00 86 1011.1
20260508064024 47 65 0.0 0.0 0.00 0.00 0.00 86 1010.7
20260508063521 47 73 0.0 0.0 0.00 0.00 0.00 84 1011.1
20260508063019 47 73 0.0 0.0 0.00 0.00 0.00 84 1011.1
20260508062516 48 73 0.0 0.0 0.00 0.00 0.00 83 1011.1
20260508062013 48 79 0.0 0.0 0.00 0.00 0.00 82 1011.1
20260508061511 48 81 0.0 0.0 0.00 0.00 0.00 82 1011.4
20260508061007 48 82 0.0 0.0 0.00 0.00 0.00 81 1011.4
20260508060504 48 83 0.0 0.0 0.00 0.00 0.00 80 1011.1
20260508060000 49 85 0.0 0.0 0.00 0.00 0.00 78 1011.4
20260508055457 49 77 0.0 0.0 0.00 0.00 0.00 77 1011.4
20260508054953 49 80 0.0 0.0 0.00 0.00 0.00 74 1011.4
20260508054450 49 89 0.0 0.0 0.00 0.00 0.00 71 1011.4
20260508053947 49 82 0.0 0.0 0.00 0.00 0.00 70 1011.1
20260508053444 49 82 0.0 0.0 0.00 0.00 0.00 71 1010.7
20260508052942 49 67 0.0 0.0 0.00 0.00 0.00 70 1010.7
20260508052440 49 75 0.0 0.0 0.00 0.00 0.00 70 1010.7
20260508051936 49 65 0.0 0.0 0.00 0.00 0.00 71 1010.7
20260508051431 49 62 0.0 0.0 0.00 0.00 0.00 70 1011.1
20260508050927 49 61 0.9 0.9 0.00 0.00 0.00 71 1011.1
20260508050424 49 76 0.0 0.0 0.00 0.00 0.00 72 1011.1
20260508045920 49 76 0.0 0.0 0.00 0.00 0.00 71 1011.1
20260508045418 48 59 0.0 0.0 0.00 0.00 0.00 71 1010.7
20260508044916 48 68 0.0 0.0 0.00 0.00 0.00 73 1010.7
20260508044414 48 64 0.0 0.0 0.00 0.00 0.00 74 1011.1
20260508043908 48 62 0.0 0.9 0.00 0.00 0.00 76 1010.7
20260508042145 48 88 0.0 0.0 0.00 0.00 0.00 73 1011.1
20260508041641 48 88 0.0 0.0 0.00 0.00 0.00 73 1011.1
20260508041138 48 88 0.0 0.0 0.00 0.00 0.00 73 1011.1
20260508040635 48 78 0.0 0.0 0.00 0.00 0.00 75 1011.1
20260508040133 48 84 0.0 0.0 0.00 0.00 0.00 77 1011.1
20260508035630 48 89 0.0 0.0 0.00 0.00 0.00 76 1011.1
20260508035127 48 106 0.0 0.9 0.00 0.00 0.00 76 1011.1
20260508034624 48 72 0.0 0.0 0.00 0.00 0.00 75 1011.1
20260508034121 48 72 0.0 0.0 0.00 0.00 0.00 74 1011.1
20260508033618 48 72 0.0 0.0 0.00 0.00 0.00 71 1011.1
20260508033116 48 72 0.0 0.0 0.00 0.00 0.00 72 1011.1
20260508032612 49 72 0.0 0.0 0.00 0.00 0.00 70 1011.1
20260508032110 49 72 0.0 0.0 0.00 0.00 0.00 68 1011.1
20260508031607 49 72 0.0 0.0 0.00 0.00 0.00 68 1010.7
20260508031103 48 75 0.0 0.0 0.00 0.00 0.00 70 1011.1
20260508030559 48 84 0.0 0.0 0.00 0.00 0.00 71 1011.1
20260508030058 48 68 0.0 0.0 0.00 0.00 0.00 71 1011.1
20260508025553 47 62 0.0 0.0 0.00 0.00 0.00 74 1010.7
20260508025051 47 72 0.0 0.0 0.00 0.00 0.00 76 1011.1
20260508024546 46 72 0.0 0.0 0.00 0.00 0.00 76 1011.1
20260508024044 46 72 0.0 0.0 0.00 0.00 0.00 75 1011.1
20260508023540 46 72 0.0 0.0 0.00 0.00 0.00 73 1011.1
20260508023038 47 72 0.0 0.0 0.00 0.00 0.00 73 1010.7
20260508022533 47 72 0.0 0.0 0.00 0.00 0.00 73 1011.1
20260508022031 47 72 0.0 0.0 0.00 0.00 0.00 73 1010.7
20260508021526 47 71 0.0 0.0 0.00 0.00 0.00 71 1010.7
20260508021022 48 71 0.0 0.0 0.00 0.00 0.00 69 1010.7
20260508020520 48 71 0.0 0.0 0.00 0.00 0.00 69 1010.7
20260508020018 48 71 0.0 0.0 0.00 0.00 0.00 70 1010.7
20260508015515 48 73 0.0 0.0 0.00 0.00 0.00 70 1011.1
20260508015012 47 73 0.0 0.0 0.00 0.00 0.00 69 1011.1
20260508014508 48 73 0.0 0.0 0.00 0.00 0.00 69 1011.1
20260508014004 48 73 0.0 0.0 0.00 0.00 0.00 68 1010.7
20260508013500 48 73 0.0 0.0 0.00 0.00 0.00 66 1011.1
20260508012958 49 73 0.0 0.0 0.00 0.00 0.00 65 1011.1
20260508012455 49 73 0.0 0.0 0.00 0.00 0.00 65 1011.1
20260508011952 50 73 0.0 0.0 0.00 0.00 0.00 63 1010.7
20260508011450 50 73 0.0 0.0 0.00 0.00 0.00 61 1010.7
20260508010947 51 73 0.0 0.0 0.00 0.00 0.00 60 1010.7
20260508010444 51 73 0.0 0.0 0.00 0.00 0.00 59 1010.7
20260508005941 51 73 0.0 0.0 0.00 0.00 0.00 58 1010.7
20260508005438 52 73 0.0 0.0 0.00 0.00 0.00 57 1010.4
20260508004935 52 69 0.0 0.0 0.00 0.00 0.00 57 1010.4
20260508004431 52 70 0.0 0.0 0.00 0.00 0.00 56 1010.7
20260508003927 53 73 0.0 0.0 0.00 0.00 0.00 57 1010.4
20260508003424 53 78 0.0 0.0 0.00 0.00 0.00 56 1010.4
20260508002922 53 78 0.0 0.0 0.00 0.00 0.00 53 1010.4
20260508002418 53 73 0.0 0.0 0.00 0.00 0.00 53 1010.4
20260508001914 54 73 0.0 0.0 0.00 0.00 0.00 53 1010.4
20260508001411 55 75 0.0 0.0 0.00 0.00 0.00 51 1010.4
20260508000907 55 75 0.0 0.0 0.00 0.00 0.00 49 1010.4
20260508000405 55 88 0.0 0.0 0.00 0.00 0.00 48 1010.0
20260507235900 56 95 0.0 0.0 0.00 0.00 0.00 47 1010.0
20260507235357 56 79 0.0 0.9 0.00 0.00 0.00 47 1010.0
20260507234854 56 82 0.0 0.0 0.00 0.00 0.00 46 1010.0
20260507234351 56 62 0.0 0.9 0.00 0.00 0.00 46 1010.4
20260507233848 56 75 0.0 0.0 0.00 0.00 0.00 49 1010.0
20260507233345 56 79 0.0 0.0 0.00 0.00 0.00 48 1010.0
20260507232843 56 79 0.0 0.0 0.00 0.00 0.00 48 1010.0
20260507232339 57 90 0.0 0.0 0.00 0.00 0.00 48 1010.0
20260507231837 57 87 0.0 0.0 0.00 0.00 0.00 50 1010.0
20260507231333 58 71 0.0 0.0 0.00 0.00 0.00 46 1010.0
20260507230829 58 69 0.0 0.0 0.00 0.00 0.00 45 1010.0
20260507230327 58 98 0.0 0.0 0.00 0.00 0.00 46 1010.0
20260507225827 59 74 0.0 0.0 0.00 0.00 0.00 45 1010.0
20260507225323 59 78 0.0 0.0 0.00 0.00 0.00 46 1010.0
20260507224819 59 185 1.7 1.7 0.00 0.00 0.00 45 1010.0
20260507224316 59 73 0.0 0.9 0.00 0.00 0.00 46 1010.0
20260507223812 59 53 0.0 0.9 0.00 0.00 0.00 45 1010.4
20260507223308 58 78 0.0 0.0 0.00 0.00 0.00 45 1010.4
20260507222806 59 77 0.0 0.0 0.00 0.00 0.00 45 1010.0
20260507222305 61 152 4.3 7.0 0.00 0.00 0.00 41 1010.4
20260507221759 61 97 0.0 0.0 0.00 0.00 0.00 44 1010.4
20260507221255 61 57 1.7 1.7 0.00 0.00 0.00 41 1010.7
20260507220751 60 60 2.6 4.3 0.00 0.00 0.00 41 1010.7
20260507220250 60 93 2.6 2.6 0.00 0.00 0.00 40 1010.4
20260507215746 60 88 0.9 0.9 0.00 0.00 0.00 41 1010.4
20260507215244 58 183 0.0 0.9 0.00 0.00 0.00 44 1010.0
20260507214740 59 59 1.7 2.6 0.00 0.00 0.00 43 1010.4
20260507214238 61 80 0.0 0.0 0.00 0.00 0.00 44 1010.4
20260507213733 59 54 0.0 0.0 0.00 0.00 0.00 47 1010.4
20260507213230 59 172 1.7 2.6 0.00 0.00 0.00 42 1010.4
20260507212726 61 200 0.9 0.9 0.00 0.00 0.00 40 1010.4
20260507212223 62 184 4.3 9.6 0.00 0.00 0.00 40 1010.0
20260507211720 62 74 1.7 2.6 0.00 0.00 0.00 41 1010.0
20260507211215 62 170 0.9 0.9 0.00 0.00 0.00 40 1010.0
20260507210713 62 103 0.9 0.9 0.00 0.00 0.00 41 1010.0
20260507210210 62 179 2.6 4.3 0.00 0.00 0.00 41 1010.0
20260507205706 61 82 2.6 2.6 0.00 0.00 0.00 41 1010.0
20260507205203 61 146 2.6 4.3 0.00 0.00 0.00 41 1010.0
20260507204659 62 75 0.0 0.0 0.00 0.00 0.00 41 1010.0
20260507204157 61 84 1.7 1.7 0.00 0.00 0.00 42 1010.0
20260507203655 60 75 1.7 2.6 0.00 0.00 0.00 42 1010.4
20260507203152 61 110 0.9 1.7 0.00 0.00 0.00 44 1010.0
20260507202647 60 174 2.6 5.2 0.00 0.00 0.00 43 1010.0
20260507202144 59 148 1.7 1.7 0.00 0.00 0.00 44 1010.0
20260507201639 58 82 0.0 0.9 0.00 0.00 0.00 45 1010.0
20260507201136 58 182 0.9 1.7 0.00 0.00 0.00 46 1010.0
20260507200632 60 109 1.7 1.7 0.00 0.00 0.00 43 1010.4
20260507200128 59 116 2.6 5.2 0.00 0.00 0.00 44 1010.4
20260507195626 60 61 0.0 0.0 0.00 0.00 0.00 50 1010.0
20260507195123 62 202 2.6 2.6 0.00 0.00 0.00 44 1010.4
20260507194619 60 78 0.0 0.9 0.00 0.00 0.00 45 1010.4
20260507194115 60 291 2.6 4.3 0.00 0.00 0.00 44 1010.4
20260507193612 60 76 0.9 0.9 0.00 0.00 0.00 44 1010.7
20260507193109 62 31 1.7 2.6 0.00 0.00 0.00 43 1010.7
20260507192605 61 75 0.9 0.9 0.00 0.00 0.00 43 1010.4
20260507192102 62 34 2.6 2.6 0.00 0.00 0.00 44 1010.4
20260507191557 62 71 0.9 0.9 0.00 0.00 0.00 46 1010.4
20260507191055 60 95 1.7 1.7 0.00 0.00 0.00 45 1010.4
20260507190552 59 198 1.7 4.3 0.00 0.00 0.00 47 1010.4
20260507190051 61 304 3.5 5.2 0.00 0.00 0.00 45 1010.4
20260507185549 60 131 3.5 6.1 0.00 0.00 0.00 44 1010.4